Galesburg, IL

3:58 PM CST on December 12, 2017 (GMT -0600)
Galesburg Municipal

Weather History for KGBG - May, 2014

Change the Weather History Date:

Wednesday, May 14, 2014

  Actual Average Record
Temperature  
Mean Temperature 50 °F -  
Max Temperature 53 °F 72 °F 89 °F (1991)
Min Temperature 46 °F 49 °F 36 °F (1981)
Degree Days  
Heating Degree Days 16    
Moisture  
Dew Point 42 °F    
Average Humidity 74    
Maximum Humidity 92    
Minimum Humidity 62    
Precipitation  
Precipitation 0.00 in - - ()
Sea Level Pressure  
Sea Level Pressure 30.13 in    
Wind  
Wind Speed 11 mph (North)    
Max Wind Speed 17 mph    
Max Gust Speed 21 mph    
Visibility 10 miles    
Events Rain    
Averages and records for this station are not official NWS values.
T = Trace of Precipitation, MM = Missing Value Source: NWS Daily Summary

Daily Weather History Graph

Daily Weather History Graph

Search for Another Location

Airport or City:

Trip Planner

Search our weather history database for the weather conditions in past years. The results will help you decide how hot, cold, wet, or windy it might be!

Date:

Astronomy

May. 14, 2014 Rise Set
Actual Time 5:45 AM CDT 8:11 PM CDT
Civil Twilight 5:13 AM CDT 8:42 PM CDT
Nautical Twilight 4:35 AM CDT 9:21 PM CDT
Astronomical Twilight 3:52 AM CDT 10:04 PM CDT
Moon 8:17 PM CDT (5/14) 5:44 AM CDT (5/14)
Length of Visible Light 15h 29m
Length of Day
14h 26m
Full, 100% of the Moon is Illuminated
May 14
Full
May 14
Full
May 21
Last Quarter
May 28
New
Jun 5
First Quarter

Hourly Weather History & Observations

Time (CDT) Temp. Dew Point Humidity Pressure Visibility Wind Dir Wind Speed Gust Speed Precip Events Conditions
12:15 AM - - N/A% - - North - - N/A   Unknown
12:35 AM - - N/A% - - North - - N/A   Unknown
12:55 AM - - N/A% - - North - - N/A   Unknown
1:15 AM - - N/A% - - North - - N/A   Unknown
1:35 AM - - N/A% - - North - - N/A   Unknown
1:55 AM - - N/A% - - North - - N/A   Unknown
2:15 AM - - N/A% - - North - - N/A   Unknown
2:35 AM - - N/A% - - North - - N/A   Unknown
2:55 AM - - N/A% - - North - - N/A   Unknown
3:15 AM - - N/A% - - North - - N/A   Unknown
3:35 AM - - N/A% - - North - - N/A   Unknown
3:55 AM - - N/A% - - North - - N/A   Unknown
4:15 AM - - N/A% - - North - - N/A   Unknown
4:35 AM - - N/A% - - North - - N/A   Unknown
4:55 AM - - N/A% - - North - - N/A   Unknown
5:15 AM - - N/A% - - North - - N/A   Unknown
5:35 AM - - N/A% - - North - - N/A   Unknown
5:55 AM - - N/A% - - North - - N/A   Unknown
6:15 AM - - N/A% - - North - - N/A   Unknown
6:35 AM - - N/A% - - North - - N/A   Unknown
6:55 AM - - N/A% - - North - - N/A   Unknown
7:15 AM - - N/A% - - North - - N/A   Unknown
7:35 AM - - N/A% - - North - - N/A   Unknown
7:55 AM - - N/A% - - North - - N/A   Unknown
8:10 AM - - N/A% - - North - - N/A   Unknown
8:35 AM 51.3 °F 41.7 °F 70% 30.18 in 10.0 mi North 17.3 mph 20.7 mph N/A   Unknown
8:55 AM 50.9 °F 41.4 °F 70% 30.21 in 10.0 mi North 12.7 mph - N/A   Clear
9:15 AM 52.2 °F 41.4 °F 67% 30.20 in 10.0 mi North 12.7 mph - N/A   Clear
9:35 AM 52.2 °F 42.3 °F 69% 30.19 in 10.0 mi North 12.7 mph - N/A   Clear
9:55 AM 53.2 °F 41.9 °F 65% 30.19 in 10.0 mi North 15.0 mph 19.6 mph N/A   Clear
10:15 AM 51.8 °F 41.0 °F 67% 30.19 in 10.0 mi North 13.8 mph - N/A   Clear
10:35 AM 51.8 °F 40.6 °F 66% 30.20 in 10.0 mi North 13.8 mph - N/A   Clear
10:55 AM 51.1 °F 40.5 °F 67% 30.23 in 10.0 mi NNW 11.5 mph - N/A   Clear
11:15 AM 51.1 °F 40.8 °F 68% 30.23 in 10.0 mi North 9.2 mph - N/A   Scattered Clouds
11:35 AM 51.8 °F 41.0 °F 67% 30.21 in 10.0 mi North 11.5 mph - N/A   Scattered Clouds
11:55 AM 51.8 °F 40.8 °F 66% 30.19 in 10.0 mi North 13.8 mph - N/A   Clear
12:15 PM 52.0 °F 41.9 °F 69% 30.18 in 10.0 mi North 13.8 mph - N/A   Scattered Clouds
12:35 PM 51.8 °F 41.4 °F 68% 30.18 in 10.0 mi North 9.2 mph - N/A   Mostly Cloudy
12:55 PM 51.8 °F 40.6 °F 66% 30.17 in 10.0 mi North 12.7 mph - N/A   Overcast
1:15 PM 51.6 °F 41.5 °F 68% 30.17 in 10.0 mi North 10.4 mph - N/A   Overcast
1:35 PM 51.8 °F 41.7 °F 68% 30.17 in 10.0 mi North 10.4 mph - N/A   Overcast
1:55 PM 52.5 °F 40.1 °F 63% 30.15 in 10.0 mi North 16.1 mph - N/A   Overcast
2:15 PM 52.7 °F 41.2 °F 65% 30.14 in 10.0 mi North 12.7 mph 19.6 mph N/A   Overcast
2:35 PM 52.3 °F 40.3 °F 64% 30.13 in 10.0 mi North 13.8 mph - N/A   Overcast
2:55 PM 53.6 °F 41.0 °F 62% 30.14 in 10.0 mi North 9.2 mph - N/A   Overcast
3:15 PM 52.3 °F 40.5 °F 64% 30.14 in 10.0 mi North 10.4 mph - N/A   Overcast
3:35 PM 52.7 °F 41.2 °F 65% 30.14 in 10.0 mi NNW 8.1 mph - N/A   Overcast
3:55 PM 52.3 °F 41.0 °F 65% 30.13 in 10.0 mi North 9.2 mph - N/A   Overcast
4:15 PM 52.2 °F 41.2 °F 66% 30.12 in 10.0 mi North 10.4 mph - N/A   Overcast
4:35 PM 52.2 °F 41.0 °F 66% 30.11 in 10.0 mi North 9.2 mph - N/A   Overcast
4:55 PM 51.8 °F 42.1 °F 69% 30.10 in 10.0 mi ENE 5.8 mph 16.1 mph N/A   Overcast
5:15 PM 50.4 °F 43.7 °F 78% 30.08 in 10.0 mi ENE 9.2 mph - N/A Rain Light Rain
5:35 PM 50.0 °F 43.3 °F 78% 30.08 in 10.0 mi ENE 9.2 mph - N/A   Overcast
5:55 PM 50.0 °F 43.2 °F 77% 30.09 in 10.0 mi ENE 5.8 mph - N/A   Overcast
6:15 PM 49.6 °F 42.8 °F 77% 30.07 in 10.0 mi NE 5.8 mph - N/A   Overcast
6:35 PM 49.6 °F 42.4 °F 76% 30.07 in 10.0 mi NE 6.9 mph - N/A   Overcast
6:55 PM 49.6 °F 42.1 °F 75% 30.06 in 10.0 mi NE 6.9 mph - N/A   Overcast
7:15 PM 49.6 °F 42.3 °F 76% 30.06 in 10.0 mi NE 4.6 mph - N/A   Overcast
7:35 PM 49.5 °F 41.9 °F 75% 30.07 in 10.0 mi NE 5.8 mph - N/A   Overcast
7:55 PM 48.9 °F 41.2 °F 75% 30.08 in 10.0 mi North 4.6 mph - N/A   Overcast
8:15 PM 47.7 °F 41.9 °F 80% 30.09 in 10.0 mi North 3.5 mph - N/A   Overcast
8:35 PM 48.2 °F 42.8 °F 82% 30.09 in 10.0 mi West 4.6 mph - N/A   Overcast
8:55 PM 47.8 °F 43.0 °F 83% 30.08 in 10.0 mi WNW 3.5 mph - N/A   Overcast
9:15 PM 47.8 °F 43.7 °F 86% 30.08 in 10.0 mi Calm Calm - N/A   Overcast
9:35 PM 46.9 °F 43.7 °F 88% 30.08 in 10.0 mi Calm Calm - N/A   Overcast
9:55 PM 47.3 °F 44.4 °F 90% 30.09 in 10.0 mi Calm Calm - N/A   Overcast
10:15 PM 47.1 °F 44.6 °F 91% 30.08 in 10.0 mi Calm Calm - N/A   Overcast
10:35 PM 46.6 °F 44.4 °F 92% 30.08 in 10.0 mi Calm Calm - N/A   Overcast
10:55 PM 48.2 °F 44.6 °F 87% 30.08 in 10.0 mi Calm Calm - N/A Rain Light Rain
11:15 PM 46.8 °F 44.2 °F 91% 30.07 in 10.0 mi SSW 3.5 mph - N/A   Light Drizzle
11:35 PM 46.8 °F 44.1 °F 90% 30.06 in 10.0 mi Calm Calm - N/A   Overcast
11:55 PM 46.6 °F 44.1 °F 91% 30.05 in 10.0 mi Calm Calm - N/A   Overcast